{"data":{"norad_id":55641,"intl_designator":"2023-021P","name":"STARLINK-5065","alt_names":[],"object_type":"PAYLOAD","status":"ACTIVE","operator":null,"country":"US","launch_date":"2023-02-17","launch_site_code":"AFWTR","launch_vehicle":null,"mission":null,"orbit_class":"UNKNOWN","rcs_meters":null,"size_class":null,"mass_kg":null,"dimensions":null,"purposes":["comms"],"wikipedia_slug":null,"has_3d_model":false,"image_url":null,"decayed_at":null,"tle_current":{"epoch":"2026-05-25T00:48:54.253728Z","epoch_age_seconds":68588,"freshness":"FRESH","line1":"1 55641U 23021P   26145.03396127  .00000648  00000+0  62139-4 0  9990","line2":"2 55641  69.9995 352.1000 0003134 267.3107  92.7693 14.98323954180225","mean_motion":14.98323954,"eccentricity":0.0003134,"inclination_deg":69.9995,"raan_deg":352.1,"arg_perigee_deg":267.3107,"mean_anomaly_deg":92.7693,"bstar":6.2139e-5,"rev_number":18022,"period_min":96.107386934294,"perigee_km":569.89639145195,"apogee_km":574.25278407516,"semimajor_km":6950.2115877636,"source":"CELESTRAK","updated_at":"2026-05-25T13:38:17.849440Z"}}}